Regional Weather Roundup
Issued by NWS

Home | Current Version | Previous Version | Graphics & Text | Print | Product List | Glossary On
Versions: 1 2 3 4 5 6 7 8 9 10 11 12 13 14 15 16 17 18 19 20 21 22 23 24 25 26 27 28 29 30 31 32 33 34 35 36 37 38 39 40 41 42 43 44 45 46 47 48 49 50
000
ASUS45 KBOI 011610
RWRID
WEATHER ROUNDUP FOR IDAHO
NATIONAL WEATHER SERVICE BOISE ID
900 AM MST SUN FEB 01 2015

NOTE: "FAIR" INDICATES FEW OR NO CLOUDS BELOW 12000 FEET
WITH NO SIGNIFICANT WEATHER AND/OR OBSTRUCTIONS TO VISIBILITY

IDZ012-014-011700-
SOUTHWEST IDAHO


CITY           SKY/WX    TMP DP  RH WIND       PRES   REMARKS
BOISE          CLOUDY    36  24  62 SE8       30.17S WCI  30
CALDWELL       CLOUDY    30  23  74 SE3       30.20R
MOUNTAIN HOME  CLOUDY    30  27  87 E20G25    30.19R WCI  18
$$

IDZ016-017-011700-
SOUTHCENTRAL IDAHO


CITY           SKY/WX    TMP DP  RH WIND       PRES   REMARKS
BURLEY         PTSUNNY   29  26  89 NE7       30.21R FOG     WCI  22
JEROME         MOSUNNY   30  27  88 NE13      30.21R WCI  20
TWIN FALLS     MOSUNNY   31  26  82 E7        30.20R WCI  24
$$

IDZ019>023-011700-
SOUTHEAST IDAHO


CITY           SKY/WX    TMP DP  RH WIND       PRES   REMARKS
IDAHO FALLS    CLOUDY    29  25  85 N6        30.23R WCI  23
POCATELLO      CLOUDY    29  29 100 E5        30.24R WCI  24
REXBURG        CLOUDY    24  22  91 NE5       30.22R WCI  18
$$

IDZ006-010-011-018-031-032-011700-
CENTRAL IDAHO MOUNTAINS


CITY           SKY/WX    TMP DP  RH WIND       PRES   REMARKS
MCCALL         CLOUDY    24  17  74 CALM      30.11F
HAILEY         MOCLDY    19  10  68 CALM      30.20R
STANLEY          N/A      7   1  76 CALM      30.19S
SALMON         CLOUDY    21  16  79 E7        30.26S WCI  13
CHALLIS        CLOUDY    18  16  92 NW3       30.20F
$$

IDZ002-004-006-007-026-011700-
NORTHERN IDAHO


CITY           SKY/WX    TMP DP  RH WIND       PRES   REMARKS
LEWISTON       CLOUDY    35  30  82 E9        30.14F WCI  28
LOWELL           N/A     32  29  88 CALM      30.25F
COEUR D`ALENE  CLOUDY    30  27  86 NE8       30.14S WCI  23
MULLAN PASS    LGT SNOW  21  17  84 S8        30.02F FOG     WCI  11
$$



USA.gov is the U.S. government's official web portal to all federal, state and local government web resources and services.